Regional Weather Roundup
Issued by NWS

Home | Current Version | Previous Version | Graphics & Text | Print | Product List | Glossary On
Versions: 1 2 3 4 5 6 7 8 9 10 11 12 13 14 15 16 17 18 19 20 21 22 23 24 25 26 27 28 29 30 31 32 33 34 35 36 37 38 39 40 41 42 43 44 45 46 47 48 49 50
000
ASUS43 KDTX 011301
RWRMI
MICHIGAN HOURLY REGIONAL WEATHER ROUNDUP
NATIONAL WEATHER SERVICE DETROIT/PONTIAC MI
800 AM EST SUN MAR 01 2015

NOTE: "FAIR" INDICATES FEW OR NO CLOUDS BELOW 12,000 FEET WITH NO
SIGNIFICANT WEATHER AND/OR OBSTRUCTION TO VISIBILITY.

MIZ047>049-052>055-059>063-066>070-074>076-081>083-011400-
SOUTHEAST LOWER MICHIGAN

CITY           SKY/WX    TMP DP  RH WIND       PRES   REMARKS
ADRIAN         CLOUDY    15  12  88 NE3       30.40S
ALMA           PTCLDY     7   5  91 S5        30.38S FOG     WCI  -2
ANN ARBOR      CLOUDY    16  12  84 E3        30.38F
BAD AXE        CLEAR     10   8  91 S3        30.39F
CARO           CLEAR      6   2  85 CALM      30.38F FOG
DETROIT CITY   CLOUDY    17  12  80 CALM      30.40F
DETROIT        CLOUDY    18  14  84 CALM      30.41F
FLINT          PTCLDY     8   4  83 CALM      30.39F FOG
GROSSE ILE     LGT SNOW  18  12  79 CALM      30.39F
HILLSDALE      CLOUDY    15  12  88 CALM      30.35S
HOWELL         MOCLDY    11   9  92 CALM      30.37S FOG

CITY           SKY/WX    TMP DP  RH WIND       PRES   REMARKS
JACKSON        CLOUDY    14  10  84 SE3       30.37F
LAMBERTVILLE   LGT SNOW  19  16  86 CALM      30.39F
LANSING        PTCLDY     6   3  87 CALM      30.38F FOG
LAPEER         FAIR       9   7  91 CALM      30.38F
MASON          MOCLDY     7   4  87 CALM      30.38S
MONROE         LGT SNOW  18  14  86 CALM      30.38F
MT. CLEMENS    LGT SNOW  14  10  87 N3        30.38F FOG
PONTIAC        LGT SNOW  14  10  84 SE3       30.36F FOG
PORT HOPE        N/A     12   7  80 SW5       30.38F WCI   4
PORT HURON     LGT SNOW  12  10  92 CALM      30.40F
TRI CITIES     PTCLDY    10   7  87 S6        30.39F WCI   0
TROY           CLOUDY    17  13  83 CALM      30.42S
SAGINAW HB     PTCLDY    12  10  92 S6        30.39F WCI   3
$$
MIZ043>046-050>051-056>058-064>065-071>073-077>080-011400-
SOUTHWEST LOWER MICHIGAN

CITY           SKY/WX    TMP DP  RH WIND       PRES   REMARKS
BATTLE CREEK   MOCLDY     8   5  87 CALM      30.38S FOG
BENTON HARBOR  CLOUDY    15  13  91 E3        30.38F FOG
BIG RAPIDS     LGT SNOW  12  10  92 S5        30.33S WCI   4
COLDWATER      CLOUDY    15  12  85 CALM      30.37S
FREMONT        LGT SNOW  14  11  90 CALM      30.36R
HOLLAND        LGT SNOW  14  10  84 S3        30.38F FOG
GRAND RAPIDS   LGT SNOW  11   7  84 S8        30.37S FOG     WCI  -1
IONIA          FLURRIES   6   2  86 S5        30.36S WCI  -3
KALAMAZOO      MOCLDY    12   9  87 CALM      30.39R FOG
LUDINGTON      LGT SNOW  21  15  76 W7        30.34F WCI  13
MARSHALL       CLOUDY    11   8  89 CALM      30.37R
MOUNT PLEASANT LGT SNOW  11   8  89 CALM      30.36S
MUSKEGON       LGT SNOW  16  12  84 SE5       30.37F FOG     WCI   9
SOUTH HAVEN    LGT SNOW  16  12  86 CALM      30.38S
$$
MIZ016>042-011400-
NORTHERN LOWER MICHIGAN

CITY           SKY/WX    TMP DP  RH WIND       PRES   REMARKS
ALPENA         CLOUDY    14   1  56 S7        30.33F WCI   4
BEAVER ISLAND  CLOUDY    16   9  74 W9        30.28F WCI   4
BELLAIRE       LGT SNOW  16  11  80 S6        30.33F WCI   8
CADILLAC       LGT SNOW   9   6  87 S5        30.28F WCI   1
CHARLEVOIX     LGT SNOW  15  10  82 S5        30.33F WCI   7
FRANKFORT      LGT SNOW  20  15  80 W8        30.32F WCI  10
GAYLORD        LGT SNOW  11   7  84 SW9       30.26F FOG     WCI  -2
GRAYLING       LGT SNOW  10   4  75 CALM      30.30F
HARBOR SPRINGS CLOUDY    14   9  78 SW5       30.29F WCI   7
HOUGHTON LAKE  LGT SNOW  11   5  77 SW6       30.31F WCI   1
MANISTEE       CLOUDY    19  14  79 W7        30.34F WCI  10
OSCODA         CLOUDY     9   3  77 SW5       30.37S WCI   1
PELLSTON       CLOUDY    16   8  71 SW8       30.29F WCI   5
ROGERS CITY    CLOUDY    13   4  66 S6        30.32F WCI   4
TRAVERSE CITY  LGT SNOW  16  11  80 CALM      30.31F
$$
MIZ007>008-015-011400-
EASTERN UPPER MICHIGAN

CITY           SKY/WX    TMP DP  RH WIND       PRES   REMARKS
KINROSS        CLOUDY    12   9  85 SW5       30.26F WCI   4
MACKINAC ISLAN CLOUDY    15   7  71 SW8       30.27F WCI   4
NEWBERRY       CLOUDY    12   5  74 S8        30.23F WCI   0
S. S. MARIE    CLOUDY     9   4  80 SE3       30.26F
MUNISING         N/A     14   1  56 SW8       30.23F WCI   3
$$
MIZ004>006-011>014-085-011400-
CENTRAL UPPER MICHIGAN

CITY           SKY/WX    TMP DP  RH WIND       PRES   REMARKS
MANISTIQUE     CLOUDY    15   4  63 W7        30.25F WCI   5
ESCANABA       CLEAR     10   1  67 SW7       30.27F WCI   0
MENOMINEE      CLEAR     10   1  67 SW8       30.28F WCI  -1
SAWYER-GWINN   CLEAR      7   0  72 SW7       30.18F WCI  -5
$$
MIZ001>003-009>011-084-011400-
WESTERN UPPER MICHIGAN

CITY           SKY/WX    TMP DP  RH WIND       PRES   REMARKS
IRON MOUNTAIN  CLEAR      3  -4  72 CALM      30.19F
HOUGHTON       CLOUDY    10   2  69 CALM      30.11F
COPPER HARBOR    N/A     12   2  64 W7G17     30.13F WCI   1
IRONWOOD       CLOUDY    12   9  85 SW9       30.11F WCI   0
$$

ABBREVIATIONS USED IN REMARKS
   TC - TEMPERATURE IN CELSIUS
  WCI - WIND CHILL INDEX
   HX - HEAT INDEX
  VSB - VISIBILITY



USA.gov is the U.S. government's official web portal to all federal, state and local government web resources and services.